COSMOS 2501 (702K)

Last updated on Sat Apr 13 2024 01:03:06 GMT+0100 (British Summer Time)

1 40315U 14075A 24102.49840277 .00000018 00000+0 00000+0 0 9997 2 40315 63.6248 217.9940 0019417 206.5101 153.3876 2.13101384 72873
UTC large
Height (km)
Speed (km/s)
/
Latitude / Longitude
Inclination (degrees)
Orbital Period (minutes)
Azimuth
Elevation
Range (km)
Doppler Factor

Next 0 passes for location: London (51.5072 / 0.1276)

Sorry there are no passes over London.